Regional Weather Roundup
Issued by NWS

Home | Current Version | Previous Version | Text Only | Print | Product List | Glossary On
Versions: 1 2 3 4 5 6 7 8 9 10 11 12 13 14 15 16 17 18 19 20 21 22 23 24 25 26 27
000
ASCA42 TJSJ 240610
RWRPR
PUERTO RICO/U.S. VIRGIN ISLANDS HOURLY WEATHER ROUNDUP
NATIONAL WEATHER SERVICE SAN JUAN PR
200 AM AST TUE JAN 24 2017

PRZ001>002-007>008-010-240700-
PUERTO RICO

CITY           SKY/WX    TMP DP  RH WIND       PRES   REMARKS
SAN JUAN LMM   CLEAR     73  66  78 S3        29.95S
PONCE          PTCLDY    66  66 100 CALM      29.97
CEIBA          MOCLDY    73  68  83 SW7       29.96F
$$

VIZ001>002-240700-
U.S. VIRGIN ISLANDS

CITY           SKY/WX    TMP DP  RH WIND       PRES   REMARKS
CHARLOTTE AMA  PTCLDY    77  72  83 S13       29.94F
CHRISTIANSTED  MOCLDY    79  72  78 S9        29.95F
$$

HOURLY WEATHER ROUNDUP FOR THE NEWS MEDIA

CITY           SKY/WX    TMP DP  RH WIND       PRES   REMARKS
ORLANDO        CLEAR     61  53  75 W12       29.74S
NEW YORK       RAIN      39  36  89 NE29G39   29.39F FOG     WCI  27
NEWARK         RAIN      38  35  89 N20       29.43F FOG     WCI  28
CHICAGO        CLOUDY    38  34  85 N7        29.80F WCI  33
HARTFORD       RAIN      41  37  86 NE20G41   29.58F FOG
BOSTON         HVY RAIN  38  36  92 NE32G40   29.72F FOG     WCI  25
DALLAS         PTCLDY    56  38  50 SE14G22   29.76F
PHILADELPHIA   CLOUDY    39  35  86 N18G31    29.39F WCI  30
LOS ANGELES    CLEAR     50  39  66 VRB5      29.90R
WASHINGTON DC  LGT RAIN  36  34  92 N13       29.49F FOG     WCI  27



USA.gov is the U.S. government's official web portal to all federal, state and local government web resources and services.